NK1442 KMIA-KJFK

Flight info

Callsign NK1442
Flight time 2h 24m
Altitude 37000
Route FOLZZ3 ALYRA PELCN Y309 FLRDA SAGGY CHIEZ Q161 KALDA Q108 SIE CAMRN5
Aircraft A320/M-SDE3FGHIRWY/LB1

Departure

Time 2026-05-04 17:44
Airport Miami International Airport (KMIA)

Arrival

Time 2026-05-04 20:08
Airport John F. Kennedy International Airport (KJFK)
Time Latitude Longitude Altitude Speed Heading
2026-05-04 17:02 25.79158 -80.27849 22 ft 0 kts 293°
2026-05-04 17:04 25.79158 -80.27848 22 ft 0 kts 293°
2026-05-04 17:33 25.79152 -80.27833 24 ft 3 kts 292°
2026-05-04 17:33 25.79144 -80.27812 24 ft 3 kts 291°
2026-05-04 17:34 25.79142 -80.27773 25 ft 1 kts 197°
2026-05-04 17:34 25.79151 -80.27770 25 ft 1 kts 188°
2026-05-04 17:35 25.79170 -80.27768 22 ft 0 kts 184°
2026-05-04 17:38 25.79160 -80.27769 22 ft 5 kts 184°
2026-05-04 17:38 25.79100 -80.27776 22 ft 10 kts 192°
2026-05-04 17:39 25.78934 -80.27845 20 ft 15 kts 189°
2026-05-04 17:39 25.78870 -80.27915 21 ft 15 kts 273°
2026-05-04 17:39 25.78911 -80.28022 22 ft 16 kts 299°
2026-05-04 17:40 25.78969 -80.28136 21 ft 18 kts 300°
2026-05-04 17:40 25.79035 -80.28265 21 ft 20 kts 299°
2026-05-04 17:40 25.79113 -80.28408 18 ft 24 kts 306°
2026-05-04 17:40 25.79207 -80.28571 16 ft 26 kts 298°
2026-05-04 17:41 25.79300 -80.28757 14 ft 29 kts 301°
2026-05-04 17:41 25.79396 -80.28942 16 ft 26 kts 300°
2026-05-04 17:41 25.79490 -80.29123 17 ft 28 kts 300°
2026-05-04 17:41 25.79585 -80.29310 19 ft 28 kts 299°
2026-05-04 17:42 25.79685 -80.29509 17 ft 31 kts 299°
2026-05-04 17:42 25.79779 -80.29690 13 ft 27 kts 300°
2026-05-04 17:42 25.79875 -80.29876 14 ft 28 kts 300°
2026-05-04 17:42 25.79968 -80.30061 14 ft 23 kts 299°
2026-05-04 17:43 25.80066 -80.30104 15 ft 16 kts 57°
2026-05-04 17:43 25.80082 -80.29899 13 ft 53 kts 87°
2026-05-04 17:43 25.80108 -80.29272 22 ft 109 kts 88°
2026-05-04 17:43 25.80151 -80.28244 17 ft 153 kts 87°
2026-05-04 17:44 25.80199 -80.27056 485 ft 157 kts 83°
2026-05-04 17:44 25.80256 -80.25816 1048 ft 164 kts 91°
2026-05-04 17:44 25.79799 -80.24627 1674 ft 171 kts 115°
2026-05-04 17:44 25.79234 -80.23467 2272 ft 172 kts 111°
2026-05-04 17:45 25.78677 -80.22221 2552 ft 192 kts 111°
2026-05-04 17:45 25.78051 -80.20802 2800 ft 215 kts 112°
2026-05-04 17:45 25.77351 -80.19222 3086 ft 241 kts 113°
2026-05-04 17:45 25.76567 -80.17481 3467 ft 264 kts 115°
2026-05-04 17:46 25.75682 -80.15640 4116 ft 275 kts 117°
2026-05-04 17:46 25.74875 -80.13709 4854 ft 281 kts 105°
2026-05-04 17:46 25.74637 -80.11546 5598 ft 286 kts 84°
2026-05-04 17:46 25.75102 -80.09395 6387 ft 288 kts 63°
2026-05-04 17:47 25.76210 -80.07540 7094 ft 291 kts 46°
2026-05-04 17:47 25.77557 -80.05850 7842 ft 295 kts 46°
2026-05-04 17:47 25.78929 -80.04127 8590 ft 300 kts 45°
2026-05-04 17:47 25.80323 -80.02372 9296 ft 307 kts 45°
2026-05-04 17:48 25.81745 -80.00574 9994 ft 312 kts 45°
2026-05-04 17:48 25.83205 -79.98723 10399 ft 329 kts 45°
2026-05-04 17:48 25.84765 -79.96749 10556 ft 352 kts 45°
2026-05-04 17:48 25.86427 -79.94645 10848 ft 368 kts 46°
2026-05-04 17:49 25.88123 -79.92489 11387 ft 375 kts 46°
2026-05-04 17:49 25.89850 -79.90289 11982 ft 380 kts 46°
2026-05-04 17:49 25.91591 -79.88065 12585 ft 384 kts 46°
2026-05-04 17:49 25.93361 -79.85806 13183 ft 389 kts 46°
2026-05-04 17:50 25.95152 -79.83520 13770 ft 393 kts 46°
2026-05-04 17:50 25.96936 -79.81242 14275 ft 398 kts 46°
2026-05-04 17:50 25.98759 -79.78914 14787 ft 402 kts 46°
2026-05-04 17:50 26.00606 -79.76556 15300 ft 405 kts 46°
2026-05-04 17:51 26.02466 -79.74187 15798 ft 409 kts 46°
2026-05-04 17:51 26.04347 -79.71786 16308 ft 413 kts 46°
2026-05-04 17:51 26.06239 -79.69368 16798 ft 416 kts 46°
2026-05-04 17:51 26.08151 -79.66922 17285 ft 420 kts 46°
2026-05-04 17:52 26.10076 -79.64457 17782 ft 424 kts 46°
2026-05-04 17:52 26.11852 -79.61814 18257 ft 430 kts 52°
2026-05-04 17:52 26.13580 -79.59075 18697 ft 433 kts 52°
2026-05-04 17:52 26.15322 -79.56326 19141 ft 436 kts 52°
2026-05-04 17:53 26.17078 -79.53565 19588 ft 438 kts 52°
2026-05-04 17:53 26.18848 -79.50782 20044 ft 441 kts 52°
2026-05-04 17:53 26.20622 -79.47986 20494 ft 444 kts 52°
2026-05-04 17:53 26.22408 -79.45170 20943 ft 446 kts 52°
2026-05-04 17:54 26.24203 -79.42336 21392 ft 449 kts 52°
2026-05-04 17:54 26.25989 -79.39514 21824 ft 452 kts 52°
2026-05-04 17:54 26.27880 -79.36712 22239 ft 452 kts 45°
2026-05-04 17:54 26.30109 -79.34261 22638 ft 450 kts 36°
2026-05-04 17:55 26.32647 -79.32232 23066 ft 449 kts 28°
2026-05-04 17:55 26.35292 -79.30363 23473 ft 451 kts 28°
2026-05-04 17:55 26.37952 -79.28478 23846 ft 454 kts 28°
2026-05-04 17:55 26.40618 -79.26584 24188 ft 456 kts 28°
2026-05-04 17:56 26.43301 -79.24671 24547 ft 458 kts 28°
2026-05-04 17:56 26.45991 -79.22749 24904 ft 460 kts 27°
2026-05-04 17:56 26.48692 -79.20817 25254 ft 462 kts 27°
2026-05-04 17:56 26.50491 -79.19532 25484 ft 464 kts 27°
2026-05-04 17:57 26.53218 -79.17585 25836 ft 466 kts 27°
2026-05-04 17:57 26.55957 -79.15631 26174 ft 468 kts 27°
2026-05-04 17:57 26.58707 -79.13665 26523 ft 470 kts 27°
2026-05-04 17:57 26.61470 -79.11687 26866 ft 472 kts 27°
2026-05-04 17:58 26.64242 -79.09701 27211 ft 475 kts 26°
2026-05-04 17:58 26.67027 -79.07704 27570 ft 477 kts 26°
2026-05-04 17:58 26.69829 -79.05695 27919 ft 479 kts 26°
2026-05-04 17:58 26.72651 -79.03673 28275 ft 482 kts 26°
2026-05-04 17:59 26.75484 -79.01643 28605 ft 484 kts 26°
2026-05-04 17:59 26.78329 -78.99603 28930 ft 486 kts 26°
2026-05-04 17:59 26.84026 -78.95507 29812 ft 485 kts 26°
2026-05-04 18:00 26.86864 -78.93460 30265 ft 484 kts 25°
2026-05-04 18:00 26.89658 -78.91445 30651 ft 484 kts 25°
2026-05-04 18:00 26.92485 -78.89406 31036 ft 483 kts 25°
2026-05-04 18:00 26.95310 -78.87369 31420 ft 483 kts 25°
2026-05-04 18:01 26.98138 -78.85332 31808 ft 482 kts 25°
2026-05-04 18:01 27.00957 -78.83302 32197 ft 481 kts 25°
2026-05-04 18:01 27.03776 -78.81269 32595 ft 481 kts 26°
2026-05-04 18:02 27.09398 -78.77201 33407 ft 480 kts 26°
2026-05-04 18:02 27.12196 -78.75175 33819 ft 479 kts 26°
2026-05-04 18:02 27.14993 -78.73151 34204 ft 478 kts 26°
2026-05-04 18:02 27.17786 -78.71128 34517 ft 478 kts 26°
2026-05-04 18:03 27.20582 -78.69099 34810 ft 478 kts 25°
2026-05-04 18:03 27.23378 -78.67071 35093 ft 478 kts 25°
2026-05-04 18:03 27.26221 -78.65147 35364 ft 473 kts 19°
2026-05-04 18:03 27.29218 -78.63727 35630 ft 463 kts
2026-05-04 18:04 27.32301 -78.62859 35887 ft 452 kts
2026-05-04 18:04 27.35407 -78.62428 36132 ft 449 kts 357°
2026-05-04 18:04 27.41577 -78.61651 36630 ft 450 kts 357°
2026-05-04 18:05 27.44686 -78.61251 36870 ft 450 kts 357°
2026-05-04 18:05 27.47801 -78.60844 37036 ft 451 kts 357°
2026-05-04 18:05 27.50939 -78.60434 37076 ft 457 kts 357°
2026-05-04 18:06 27.60506 -78.59186 37077 ft 463 kts 358°
2026-05-04 18:06 27.66915 -78.58344 37075 ft 464 kts 358°
2026-05-04 18:07 27.73331 -78.57502 37082 ft 464 kts 358°
2026-05-04 18:07 27.79742 -78.56668 37089 ft 464 kts 358°
2026-05-04 18:08 27.86161 -78.55830 37096 ft 465 kts 358°
2026-05-04 18:08 27.92590 -78.54991 37103 ft 465 kts 358°
2026-05-04 18:09 28.05446 -78.53310 37118 ft 465 kts 358°
2026-05-04 18:10 28.11876 -78.52467 37124 ft 465 kts 358°
2026-05-04 18:10 28.18264 -78.51627 37126 ft 465 kts 358°
2026-05-04 18:11 28.24703 -78.50773 37131 ft 465 kts 358°
2026-05-04 18:11 28.31134 -78.49925 37132 ft 465 kts 358°
2026-05-04 18:12 28.37566 -78.49084 37126 ft 465 kts 358°
2026-05-04 18:12 28.43996 -78.48242 37131 ft 465 kts 358°
2026-05-04 18:13 28.50424 -78.47392 37133 ft 465 kts 358°
2026-05-04 18:14 28.60021 -78.46117 37138 ft 465 kts 358°
2026-05-04 18:14 28.66442 -78.45269 37140 ft 464 kts 358°
2026-05-04 18:15 28.79277 -78.43562 37144 ft 464 kts 358°
2026-05-04 18:16 28.85691 -78.42718 37144 ft 463 kts 358°
2026-05-04 18:16 28.92099 -78.41857 37149 ft 463 kts 358°
2026-05-04 18:17 29.01701 -78.40562 37154 ft 463 kts 358°
2026-05-04 18:18 29.11285 -78.39289 37155 ft 462 kts 358°
2026-05-04 18:18 29.17669 -78.38436 37161 ft 461 kts 358°
2026-05-04 18:19 29.27237 -78.37154 37153 ft 461 kts 358°
2026-05-04 18:19 29.33605 -78.36294 37155 ft 460 kts 358°
2026-05-04 18:20 29.39919 -78.35444 37156 ft 460 kts 358°
2026-05-04 18:20 29.46280 -78.34582 37157 ft 459 kts 358°
2026-05-04 18:21 29.52539 -78.34551 37161 ft 445 kts 347°
2026-05-04 18:21 29.58727 -78.35025 37163 ft 445 kts 347°
2026-05-04 18:22 29.64908 -78.35481 37164 ft 445 kts 347°
2026-05-04 18:22 29.71088 -78.35932 37162 ft 445 kts 347°
2026-05-04 18:23 29.77261 -78.36387 37164 ft 444 kts 347°
2026-05-04 18:23 29.83423 -78.36847 37167 ft 444 kts 347°
2026-05-04 18:24 29.89590 -78.37299 37166 ft 444 kts 347°
2026-05-04 18:24 29.95752 -78.37754 37172 ft 443 kts 347°
2026-05-04 18:25 30.01901 -78.38218 37171 ft 443 kts 346°
2026-05-04 18:25 30.08042 -78.38680 37172 ft 442 kts 346°
2026-05-04 18:26 30.14172 -78.38961 37168 ft 451 kts 354°
2026-05-04 18:26 30.20472 -78.38075 37174 ft 457 kts 358°
2026-05-04 18:27 30.26769 -78.37116 37171 ft 457 kts 358°
2026-05-04 18:27 30.33069 -78.36160 37169 ft 456 kts 357°
2026-05-04 18:28 30.39373 -78.35210 37173 ft 456 kts 357°
2026-05-04 18:28 30.45674 -78.34135 37173 ft 460 kts
2026-05-04 18:29 30.51978 -78.32640 37178 ft 464 kts
2026-05-04 18:29 30.58282 -78.31039 37179 ft 463 kts
2026-05-04 18:30 30.67741 -78.28791 37186 ft 462 kts
2026-05-04 18:31 30.73999 -78.27343 37182 ft 462 kts
2026-05-04 18:31 30.80306 -78.25867 37182 ft 462 kts
2026-05-04 18:32 30.86600 -78.24382 37176 ft 462 kts
2026-05-04 18:32 30.92893 -78.22905 37183 ft 461 kts
2026-05-04 18:33 30.99191 -78.21470 37180 ft 460 kts
2026-05-04 18:33 31.05480 -78.20097 37181 ft 460 kts
2026-05-04 18:34 31.11773 -78.18717 37184 ft 460 kts
2026-05-04 18:34 31.18062 -78.17319 37183 ft 460 kts
2026-05-04 18:35 31.24352 -78.15905 37181 ft 460 kts
2026-05-04 18:35 31.30640 -78.14498 37188 ft 460 kts
2026-05-04 18:36 31.36931 -78.13094 37185 ft 460 kts
2026-05-04 18:36 31.43227 -78.11686 37189 ft 460 kts
2026-05-04 18:37 31.49476 -78.10505 37187 ft 457 kts 358°
2026-05-04 18:37 31.55774 -78.09517 37187 ft 456 kts 358°
2026-05-04 18:38 31.62061 -78.08515 37187 ft 457 kts 358°
2026-05-04 18:38 31.68358 -78.07436 37179 ft 457 kts 359°
2026-05-04 18:39 31.74650 -78.06329 37177 ft 457 kts 359°
2026-05-04 18:39 31.80950 -78.05239 37179 ft 457 kts 359°
2026-05-04 18:40 31.87253 -78.04155 37183 ft 457 kts 359°
2026-05-04 18:40 31.93504 -78.03085 37179 ft 457 kts 359°
2026-05-04 18:41 31.99804 -78.01996 37183 ft 457 kts 359°
2026-05-04 18:41 32.06101 -78.00898 37176 ft 457 kts 359°
2026-05-04 18:42 32.12400 -77.99820 37180 ft 457 kts 359°
2026-05-04 18:42 32.18704 -77.98734 37186 ft 458 kts 359°
2026-05-04 18:43 32.25013 -77.97630 37184 ft 458 kts 360°
2026-05-04 18:43 32.31317 -77.96542 37182 ft 458 kts 360°
2026-05-04 18:44 32.37630 -77.95450 37178 ft 458 kts 360°
2026-05-04 18:44 32.43945 -77.94345 37181 ft 459 kts
2026-05-04 18:45 32.49198 -77.93424 37177 ft 458 kts
2026-05-04 18:45 32.55510 -77.92322 37177 ft 458 kts
2026-05-04 18:46 32.61823 -77.91227 37171 ft 458 kts
2026-05-04 18:46 32.68138 -77.90123 37171 ft 459 kts
2026-05-04 18:47 32.74457 -77.89011 37179 ft 459 kts
2026-05-04 18:47 32.80774 -77.87906 37163 ft 459 kts
2026-05-04 18:48 32.87052 -77.86808 37168 ft 459 kts
2026-05-04 18:48 32.93375 -77.85689 37170 ft 459 kts
2026-05-04 18:49 32.99688 -77.84558 37172 ft 459 kts
2026-05-04 18:49 33.06000 -77.83441 37172 ft 459 kts
2026-05-04 18:50 33.12320 -77.82337 37169 ft 459 kts
2026-05-04 18:50 33.18632 -77.81224 37164 ft 459 kts
2026-05-04 18:51 33.24952 -77.80103 37163 ft 459 kts
2026-05-04 18:51 33.31273 -77.78975 37160 ft 459 kts
2026-05-04 18:52 33.37595 -77.77849 37164 ft 459 kts
2026-05-04 18:52 33.43918 -77.76724 37162 ft 459 kts
2026-05-04 18:53 33.50244 -77.75595 37161 ft 460 kts
2026-05-04 18:53 33.56571 -77.74467 37164 ft 460 kts
2026-05-04 18:54 33.62899 -77.73332 37162 ft 460 kts
2026-05-04 18:54 33.69238 -77.72193 37163 ft 461 kts
2026-05-04 18:55 33.75572 -77.70891 37161 ft 463 kts
2026-05-04 18:55 33.85071 -77.68731 37163 ft 463 kts
2026-05-04 18:56 33.91407 -77.67315 37161 ft 463 kts
2026-05-04 18:56 33.97710 -77.65950 37156 ft 463 kts
2026-05-04 18:57 34.04051 -77.64581 37153 ft 463 kts
2026-05-04 18:57 34.10387 -77.63194 37150 ft 463 kts
2026-05-04 18:58 34.16720 -77.61788 37144 ft 463 kts
2026-05-04 18:58 34.23052 -77.60391 37146 ft 462 kts
2026-05-04 18:59 34.29393 -77.59001 37146 ft 462 kts
2026-05-04 18:59 34.35719 -77.57607 37144 ft 462 kts
2026-05-04 19:00 34.42044 -77.56213 37148 ft 461 kts
2026-05-04 19:00 34.48361 -77.54818 37141 ft 461 kts
2026-05-04 19:01 34.54543 -77.52436 37148 ft 476 kts 20°
2026-05-04 19:01 34.60477 -77.48867 37146 ft 476 kts 19°
2026-05-04 19:02 34.66420 -77.45314 37141 ft 476 kts 19°
2026-05-04 19:02 34.72368 -77.41758 37133 ft 476 kts 19°
2026-05-04 19:03 34.78312 -77.38180 37134 ft 476 kts 19°
2026-05-04 19:03 34.84245 -77.34611 37142 ft 476 kts 19°
2026-05-04 19:04 34.90193 -77.31033 37141 ft 476 kts 19°
2026-05-04 19:04 34.96130 -77.27461 37134 ft 476 kts 19°
2026-05-04 19:05 35.02054 -77.23870 37124 ft 476 kts 19°
2026-05-04 19:05 35.07945 -77.20305 37121 ft 476 kts 19°
2026-05-04 19:06 35.13887 -77.16710 37121 ft 476 kts 19°
2026-05-04 19:06 35.19814 -77.13112 37117 ft 476 kts 19°
2026-05-04 19:07 35.25741 -77.09498 37119 ft 476 kts 19°
2026-05-04 19:07 35.31672 -77.05882 37117 ft 476 kts 19°
2026-05-04 19:08 35.37600 -77.02271 37106 ft 476 kts 19°
2026-05-04 19:08 35.43520 -76.98645 37111 ft 476 kts 19°
2026-05-04 19:09 35.49447 -76.95015 37108 ft 476 kts 19°
2026-05-04 19:09 35.55368 -76.91384 37107 ft 476 kts 19°
2026-05-04 19:10 35.61292 -76.87736 37105 ft 476 kts 19°
2026-05-04 19:10 35.67229 -76.84129 37098 ft 476 kts 19°
2026-05-04 19:11 35.73174 -76.80547 37097 ft 476 kts 19°
2026-05-04 19:11 35.79117 -76.76929 37095 ft 476 kts 19°
2026-05-04 19:12 35.88033 -76.71474 37098 ft 477 kts 19°
2026-05-04 19:13 35.93960 -76.67758 37102 ft 478 kts 21°
2026-05-04 19:13 35.99761 -76.63832 37103 ft 480 kts 22°
2026-05-04 19:14 36.05629 -76.59777 37107 ft 480 kts 21°
2026-05-04 19:14 36.11436 -76.55820 37102 ft 479 kts 21°
2026-05-04 19:15 36.17292 -76.51871 37093 ft 479 kts 21°
2026-05-04 19:15 36.23144 -76.47915 37085 ft 479 kts 21°
2026-05-04 19:16 36.28996 -76.43939 37080 ft 479 kts 21°
2026-05-04 19:16 36.34846 -76.39956 37087 ft 479 kts 21°
2026-05-04 19:17 36.40687 -76.35975 37091 ft 479 kts 21°
2026-05-04 19:17 36.46528 -76.31990 37089 ft 479 kts 21°
2026-05-04 19:18 36.52360 -76.27996 37075 ft 478 kts 21°
2026-05-04 19:18 36.58187 -76.23995 37072 ft 478 kts 21°
2026-05-04 19:19 36.64017 -76.20004 37069 ft 478 kts 21°
2026-05-04 19:19 36.69836 -76.15999 37068 ft 478 kts 21°
2026-05-04 19:20 36.75656 -76.11980 37069 ft 478 kts 21°
2026-05-04 19:20 36.81432 -76.07993 37059 ft 477 kts 21°
2026-05-04 19:21 36.87276 -76.03957 37058 ft 477 kts 21°
2026-05-04 19:21 36.93057 -75.99953 37059 ft 477 kts 22°
2026-05-04 19:22 36.98862 -75.95919 37057 ft 477 kts 22°
2026-05-04 19:22 37.04663 -75.91886 37051 ft 477 kts 22°
2026-05-04 19:23 37.10594 -75.88369 37054 ft 464 kts
2026-05-04 19:23 37.16780 -75.86218 37047 ft 461 kts
2026-05-04 19:24 37.22976 -75.84073 37048 ft 461 kts
2026-05-04 19:24 37.29160 -75.81923 37054 ft 461 kts
2026-05-04 19:25 37.35341 -75.79770 37056 ft 461 kts
2026-05-04 19:25 37.41518 -75.77617 37057 ft 460 kts
2026-05-04 19:26 37.47680 -75.75468 37060 ft 459 kts
2026-05-04 19:26 37.53802 -75.73328 37062 ft 459 kts
2026-05-04 19:27 37.59948 -75.71178 37057 ft 458 kts
2026-05-04 19:27 37.66085 -75.69018 37056 ft 458 kts
2026-05-04 19:28 37.72202 -75.66864 37055 ft 457 kts
2026-05-04 19:28 37.78341 -75.64709 37050 ft 456 kts
2026-05-04 19:29 37.83391 -75.62741 37050 ft 462 kts 17°
2026-05-04 19:29 37.88979 -75.58514 37057 ft 472 kts 29°
2026-05-04 19:30 37.94383 -75.53789 37056 ft 472 kts 29°
2026-05-04 19:30 37.99789 -75.49083 37059 ft 471 kts 28°
2026-05-04 19:31 38.05185 -75.44373 37056 ft 471 kts 29°
2026-05-04 19:31 38.10634 -75.39791 37050 ft 469 kts 27°
2026-05-04 19:32 38.16138 -75.35376 37035 ft 468 kts 26°
2026-05-04 19:32 38.21638 -75.30959 37041 ft 467 kts 26°
2026-05-04 19:33 38.27477 -75.27718 37040 ft 451 kts
2026-05-04 19:33 38.33604 -75.26339 37043 ft 446 kts
2026-05-04 19:34 38.39732 -75.25063 37039 ft 447 kts
2026-05-04 19:34 38.45865 -75.23768 37038 ft 446 kts
2026-05-04 19:35 38.51997 -75.22480 37017 ft 446 kts
2026-05-04 19:35 38.58081 -75.21201 37015 ft 446 kts
2026-05-04 19:36 38.64204 -75.19905 37011 ft 446 kts
2026-05-04 19:36 38.70250 -75.17897 37013 ft 457 kts 18°
2026-05-04 19:36 38.73053 -75.15928 37011 ft 465 kts 29°
2026-05-04 19:37 38.75648 -75.13428 37008 ft 467 kts 32°
2026-05-04 19:37 38.80805 -75.08347 36917 ft 468 kts 32°
2026-05-04 19:37 38.83391 -75.05809 36668 ft 467 kts 32°
2026-05-04 19:38 38.85965 -75.03284 36418 ft 465 kts 32°
2026-05-04 19:38 38.88529 -75.00771 36169 ft 463 kts 32°
2026-05-04 19:38 38.91084 -74.98268 35812 ft 462 kts 32°
2026-05-04 19:38 38.93664 -74.95740 34969 ft 468 kts 32°
2026-05-04 19:39 38.96250 -74.93199 34303 ft 469 kts 33°
2026-05-04 19:39 38.98826 -74.90658 33728 ft 465 kts 33°
2026-05-04 19:39 39.01389 -74.88125 32905 ft 463 kts 33°
2026-05-04 19:39 39.03936 -74.85604 31635 ft 461 kts 32°
2026-05-04 19:40 39.06434 -74.83123 30990 ft 447 kts 32°
2026-05-04 19:40 39.08891 -74.80681 30438 ft 443 kts 32°
2026-05-04 19:40 39.11305 -74.78243 29855 ft 441 kts 33°
2026-05-04 19:40 39.13664 -74.75747 29258 ft 437 kts 34°
2026-05-04 19:41 39.15968 -74.73236 28700 ft 432 kts 35°
2026-05-04 19:41 39.18214 -74.70756 28152 ft 428 kts 35°
2026-05-04 19:41 39.20460 -74.68277 27608 ft 423 kts 35°
2026-05-04 19:41 39.22695 -74.65826 27057 ft 419 kts 34°
2026-05-04 19:42 39.24910 -74.63414 26524 ft 415 kts 34°
2026-05-04 19:42 39.27110 -74.61031 26003 ft 412 kts 34°
2026-05-04 19:42 39.29298 -74.58664 25490 ft 408 kts 34°
2026-05-04 19:42 39.31468 -74.56319 24997 ft 406 kts 34°
2026-05-04 19:43 39.33632 -74.53978 24512 ft 403 kts 34°
2026-05-04 19:43 39.35770 -74.51656 24044 ft 401 kts 34°
2026-05-04 19:43 39.37895 -74.49342 23574 ft 399 kts 35°
2026-05-04 19:43 39.40003 -74.47039 23087 ft 396 kts 35°
2026-05-04 19:44 39.42098 -74.44751 22658 ft 391 kts 35°
2026-05-04 19:44 39.44168 -74.42493 22205 ft 387 kts 35°
2026-05-04 19:44 39.46220 -74.40255 21767 ft 383 kts 35°
2026-05-04 19:44 39.48251 -74.38039 21312 ft 380 kts 35°
2026-05-04 19:45 39.50262 -74.35839 20871 ft 376 kts 35°
2026-05-04 19:45 39.52251 -74.33660 20411 ft 374 kts 35°
2026-05-04 19:45 39.54230 -74.31491 19957 ft 371 kts 35°
2026-05-04 19:45 39.56197 -74.29336 19478 ft 369 kts 36°
2026-05-04 19:46 39.58153 -74.27191 19021 ft 368 kts 36°
2026-05-04 19:46 39.60107 -74.25052 18680 ft 370 kts 36°
2026-05-04 19:46 39.62098 -74.22872 18355 ft 375 kts 36°
2026-05-04 19:46 39.64089 -74.20685 17995 ft 375 kts 36°
2026-05-04 19:47 39.66083 -74.18489 17662 ft 375 kts 36°
2026-05-04 19:47 39.68071 -74.16302 17335 ft 373 kts 36°
2026-05-04 19:47 39.70048 -74.14125 17004 ft 372 kts 36°
2026-05-04 19:47 39.71995 -74.11974 16676 ft 371 kts 36°
2026-05-04 19:48 39.73957 -74.09803 16355 ft 370 kts 36°
2026-05-04 19:48 39.75913 -74.07637 16024 ft 369 kts 36°
2026-05-04 19:48 39.77863 -74.05480 15760 ft 368 kts 36°
2026-05-04 19:48 39.79807 -74.03332 15512 ft 367 kts 36°
2026-05-04 19:49 39.81749 -74.01183 15258 ft 366 kts 36°
2026-05-04 19:49 39.83711 -73.99092 15013 ft 363 kts 32°
2026-05-04 19:49 39.85835 -73.97355 14782 ft 358 kts 24°
2026-05-04 19:49 39.88029 -73.95813 14538 ft 358 kts 24°
2026-05-04 19:50 39.90216 -73.94271 14295 ft 357 kts 24°
2026-05-04 19:50 39.92393 -73.92731 14060 ft 356 kts 24°
2026-05-04 19:50 39.94565 -73.91190 13824 ft 355 kts 24°
2026-05-04 19:50 39.96729 -73.89651 13568 ft 354 kts 24°
2026-05-04 19:51 39.98886 -73.88117 13303 ft 352 kts 24°
2026-05-04 19:51 40.01028 -73.86596 13038 ft 350 kts 24°
2026-05-04 19:51 40.03178 -73.85132 12778 ft 347 kts 21°
2026-05-04 19:51 40.05353 -73.83792 12514 ft 345 kts 20°
2026-05-04 19:52 40.07537 -73.82517 12255 ft 343 kts 19°
2026-05-04 19:52 40.09714 -73.81269 11998 ft 341 kts 19°
2026-05-04 19:52 40.11878 -73.80022 11740 ft 339 kts 19°
2026-05-04 19:52 40.14030 -73.78766 11490 ft 338 kts 20°
2026-05-04 19:53 40.16169 -73.77502 11249 ft 337 kts 20°
2026-05-04 19:53 40.18298 -73.76233 10996 ft 335 kts 20°
2026-05-04 19:53 40.20414 -73.74967 10746 ft 333 kts 20°
2026-05-04 19:53 40.22520 -73.73706 10538 ft 332 kts 20°
2026-05-04 19:54 40.24618 -73.72452 10346 ft 331 kts 20°
2026-05-04 19:54 40.26706 -73.71202 10161 ft 330 kts 20°
2026-05-04 19:54 40.28789 -73.69954 9964 ft 327 kts 20°
2026-05-04 19:54 40.30828 -73.68727 9744 ft 318 kts 20°
2026-05-04 19:55 40.32789 -73.67547 9502 ft 311 kts 20°
2026-05-04 19:55 40.34726 -73.66383 9268 ft 304 kts 20°
2026-05-04 19:55 40.36629 -73.65239 9058 ft 297 kts 20°
2026-05-04 19:55 40.38487 -73.64121 8857 ft 292 kts 20°
2026-05-04 19:56 40.40324 -73.63017 8640 ft 290 kts 20°
2026-05-04 19:56 40.42160 -73.61917 8437 ft 289 kts 20°
2026-05-04 19:56 40.43989 -73.60820 8229 ft 288 kts 20°
2026-05-04 19:56 40.45805 -73.59727 8029 ft 287 kts 20°
2026-05-04 19:57 40.47620 -73.58633 7826 ft 286 kts 20°
2026-05-04 19:57 40.49430 -73.57543 7623 ft 286 kts 20°
2026-05-04 19:57 40.51235 -73.56454 7438 ft 285 kts 20°
2026-05-04 19:57 40.53033 -73.55366 7259 ft 284 kts 20°
2026-05-04 19:58 40.54828 -73.54282 7083 ft 283 kts 20°
2026-05-04 19:58 40.56624 -73.53196 6912 ft 283 kts 19°
2026-05-04 19:58 40.58406 -73.52119 6743 ft 282 kts 19°
2026-05-04 19:58 40.60181 -73.51048 6551 ft 281 kts 19°
2026-05-04 19:59 40.61952 -73.49976 6396 ft 280 kts 19°
2026-05-04 19:59 40.63715 -73.48904 6219 ft 280 kts 20°
2026-05-04 19:59 40.65482 -73.47832 6034 ft 277 kts 20°
2026-05-04 19:59 40.67204 -73.46784 5850 ft 270 kts 20°
2026-05-04 20:00 40.68897 -73.45751 5675 ft 264 kts 20°
2026-05-04 20:00 40.70549 -73.44742 5485 ft 259 kts 20°
2026-05-04 20:00 40.72168 -73.43753 5316 ft 255 kts 20°
2026-05-04 20:00 40.73776 -73.42943 5143 ft 246 kts
2026-05-04 20:01 40.75441 -73.42846 4962 ft 237 kts 347°
2026-05-04 20:01 40.76981 -73.43453 4790 ft 227 kts 328°
2026-05-04 20:01 40.78240 -73.44617 4611 ft 216 kts 310°
2026-05-04 20:01 40.79141 -73.46171 4419 ft 211 kts 297°
2026-05-04 20:02 40.79914 -73.47866 4248 ft 219 kts 297°
2026-05-04 20:02 40.80713 -73.49592 4059 ft 221 kts 297°
2026-05-04 20:02 40.81502 -73.51331 3929 ft 220 kts 291°
2026-05-04 20:02 40.81951 -73.53215 3767 ft 215 kts 274°
2026-05-04 20:03 40.81901 -73.55167 3636 ft 213 kts 257°
2026-05-04 20:03 40.81449 -73.57021 3494 ft 212 kts 250°
2026-05-04 20:03 40.80961 -73.58860 3368 ft 212 kts 250°
2026-05-04 20:03 40.80477 -73.60702 3244 ft 213 kts 250°
2026-05-04 20:04 40.79966 -73.62520 3135 ft 211 kts 242°
2026-05-04 20:04 40.79052 -73.64033 3019 ft 214 kts 221°
2026-05-04 20:04 40.77795 -73.65092 2925 ft 214 kts 213°
2026-05-04 20:04 40.76518 -73.66086 2747 ft 211 kts 213°
2026-05-04 20:05 40.75289 -73.67045 2491 ft 199 kts 213°
2026-05-04 20:05 40.74118 -73.67963 2232 ft 191 kts 213°
2026-05-04 20:05 40.72994 -73.68846 1976 ft 186 kts 212°
2026-05-04 20:05 40.71907 -73.69699 1749 ft 173 kts 213°
2026-05-04 20:06 40.70907 -73.70483 1489 ft 162 kts 212°
2026-05-04 20:06 40.70000 -73.71194 1324 ft 143 kts 212°
2026-05-04 20:06 40.69140 -73.71868 1109 ft 147 kts 211°
2026-05-04 20:06 40.68299 -73.72528 917 ft 134 kts 211°
2026-05-04 20:07 40.67524 -73.73136 739 ft 131 kts 212°
2026-05-04 20:07 40.66741 -73.73749 575 ft 128 kts 207°
2026-05-04 20:07 40.65985 -73.74348 403 ft 128 kts 202°
2026-05-04 20:07 40.65222 -73.74930 217 ft 126 kts 205°
2026-05-04 20:08 40.64476 -73.75534 60 ft 125 kts 205°
2026-05-04 20:08 40.63769 -73.76075 21 ft 102 kts 209°
2026-05-04 20:08 40.63307 -73.76434 22 ft 52 kts 211°
2026-05-04 20:08 40.63080 -73.76614 20 ft 33 kts 214°
2026-05-04 20:09 40.62951 -73.76839 20 ft 30 kts 243°
2026-05-04 20:09 40.62930 -73.76967 21 ft 7 kts 292°
2026-05-04 20:09 40.62957 -73.77029 21 ft 9 kts 301°
2026-05-04 20:09 40.62993 -73.77110 21 ft 11 kts 301°
2026-05-04 20:10 40.63035 -73.77201 22 ft 10 kts 301°
2026-05-04 20:10 40.63073 -73.77285 21 ft 11 kts 301°
2026-05-04 20:10 40.63111 -73.77369 21 ft 10 kts 301°
2026-05-04 20:10 40.63150 -73.77456 22 ft 12 kts 301°
2026-05-04 20:11 40.63196 -73.77558 22 ft 14 kts 301°
2026-05-04 20:11 40.63248 -73.77670 24 ft 15 kts 301°
2026-05-04 20:11 40.63303 -73.77793 23 ft 16 kts 300°
2026-05-04 20:11 40.63373 -73.77920 21 ft 17 kts 342°
2026-05-04 20:12 40.63474 -73.77856 22 ft 17 kts 32°
2026-05-04 20:12 40.63577 -73.77772 20 ft 18 kts 31°
2026-05-04 20:12 40.63688 -73.77692 20 ft 18 kts 28°
2026-05-04 20:12 40.63795 -73.77600 21 ft 19 kts 32°
2026-05-04 20:13 40.63907 -73.77515 20 ft 19 kts 31°
2026-05-04 20:13 40.64003 -73.77442 20 ft 13 kts 30°
2026-05-04 20:13 40.64041 -73.77412 21 ft 6 kts 30°
2026-05-04 20:13 40.64081 -73.77382 20 ft 7 kts 31°
2026-05-04 20:14 40.64128 -73.77343 21 ft 9 kts 32°
2026-05-04 20:14 40.64182 -73.77298 21 ft 10 kts 31°
2026-05-04 20:14 40.64247 -73.77250 21 ft 11 kts 32°
2026-05-04 20:14 40.64324 -73.77188 22 ft 15 kts 31°
2026-05-04 20:15 40.64417 -73.77116 20 ft 16 kts 28°
2026-05-04 20:15 40.64524 -73.77091 20 ft 16 kts
2026-05-04 20:15 40.64639 -73.77092 20 ft 17 kts 352°
2026-05-04 20:15 40.64725 -73.77186 22 ft 17 kts 301°
2026-05-04 20:16 40.64780 -73.77307 20 ft 12 kts 300°
2026-05-04 20:16 40.64746 -73.77376 20 ft 10 kts 191°
2026-05-04 20:16 40.64673 -73.77353 20 ft 11 kts 178°
2026-05-04 20:16 40.64634 -73.77354 20 ft 0 kts 181°